Weather Roundup
Issued by NWS

Home | Current Version | Previous Version | Text Only | Print | Product List | Glossary On
Versions: 1 2 3 4 5 6 7 8 9 10 11 12 13 14 15 16 17 18 19 20 21 22 23 24 25 26 27 28 29 30 31 32 33 34 35 36 37 38 39 40 41 42 43 44 45 46 47 48 49 50
000
NZUS93 KARX 021710
HRRWXR

CURRENT HOURLY OBSERVATIONS ACROSS
MUCH OF THE UPPER MISSISSIPPI VALLEY
NATIONAL WEATHER SERVICE LA CROSSE WI
1100 AM CST MON MAR 02 2015


...SOUTHEAST MINNESOTA...


CITY           SKY/WX    TMP DP  RH WIND       PRES   REMARKS
ROCHESTER      SUNNY     15   8  73 CALM      30.46F
ROCHESTER/MAYO FAIR      20   4  49 CALM      30.47F
WINONA         SUNNY     23  10  58 CALM      30.52F
AUSTIN         SUNNY     12   9  85 CALM      30.47S
ALBERT LEA     SUNNY     19   5  53 SE8       30.47S WCI   9
DODGE CENTER   SUNNY     16   9  73 SE3       30.45S
PRESTON        SUNNY     18   7  64 CALM      30.47S
OWATONNA       SUNNY     19   7  58 SE3       30.46F
FARIBAULT      SUNNY     19   9  63 S6        30.47F WCI  11
$$

...ELSEWHERE IN MINNESOTA...


CITY           SKY/WX    TMP DP  RH WIND       PRES   REMARKS
MINNEAPOLIS    MOSUNNY   21   6  52 S8        30.46F WCI  11
INTNL FALLS    SUNNY     16   4  59 SW9       30.31R WCI   4
DULUTH         SUNNY     20   8  60 SW14      30.36S WCI   7
RED WING       SUNNY     21   7  53 S5        30.49F WCI  15
REDWOOD FALLS  SUNNY     22  10  60 S13       30.43F WCI  10
MANKATO        SUNNY     19   9  63 S10       30.46F WCI   8
FAIRMONT       SUNNY     19  12  73 S12       30.45S WCI   7
$$

...SOUTHWEST WISCONSIN...


CITY           SKY/WX    TMP DP  RH WIND       PRES   REMARKS
LA CROSSE      SUNNY     23   8  52 W3        30.51F
PRAIRIE DU CHI SUNNY     22   9  58 CALM      30.52F
BOSCOBEL       SUNNY     23  11  60 SW3       30.52F
LONE ROCK      SUNNY     20  10  65 SW6       30.51F WCI  12
PLATTEVILLE    SUNNY     19  12  73 CALM      30.49F
FORT MC COY    SUNNY     23   7  51 N3        30.51F
CAMP DOUGLAS   SUNNY     21   8  56 SW3       30.49F
VIROQUA        FAIR      19   9  64 CALM      30.46F
WIS DELLS      SUNNY     21   9  59 W3        30.48F
$$

...ELSEWHERE IN WISCONSIN...


CITY           SKY/WX    TMP DP  RH WIND       PRES   REMARKS
MILWAUKEE      MOSUNNY   26   8  46 NW8       30.50R WCI  18
MADISON        MOSUNNY   23   8  52 NW7       30.50S WCI  15
GREEN BAY      SUNNY     23   7  50 SW7       30.48R WCI  15
EAU CLAIRE     SUNNY     19   6  57 W6        30.49F WCI  11
BLACK RVR FLS  FAIR      21   6  52 NW5       30.50F WCI  14
MEDFORD        SUNNY     17   5  60 SW5       30.42F WCI   9
WAUSAU         SUNNY     18   5  57 NW6       30.43R WCI  10
WIS RAPIDS     SUNNY     22   4  46 CALM      30.48F
MARSHFIELD     SUNNY     17   6  62 W7        30.45F WCI   8
RICE LAKE      SUNNY     19   7  60 S5        30.48S WCI  12
$$

...NORTHEAST IOWA...


CITY           SKY/WX    TMP DP  RH WIND       PRES   REMARKS
DECORAH        SUNNY     18   9  68 CALM      30.48S
MASON CITY     SUNNY     17  10  74 SE6       30.49F WCI   9
CHARLES CITY   SUNNY     18  12  79 CALM      30.50S
OELWEIN        SUNNY     14  12  92 CALM      30.51S
$$

...ELSEWHERE IN IOWA...


CITY           SKY/WX    TMP DP  RH WIND       PRES   REMARKS
DES MOINES     CLOUDY    28  12  51 SE7       30.49F WCI  21
IOWA CITY        N/A     25  14  63 CALM      30.53F
FORT DODGE     SUNNY     25  12  58 S5        30.48F WCI  19
$$

...NORTHERN ILLINOIS...


CITY           SKY/WX    TMP DP  RH WIND       PRES   REMARKS
CHICAGO-OHARE  MOSUNNY   27  10  49 CALM      30.52R
CHICAGO-MIDWAY MOSUNNY   28  12  51 N3        30.53R
MOLINE         MOSUNNY   26  14  60 CALM      30.53S
ROCKFORD       MOSUNNY   25  12  58 CALM      30.53R
PEORIA         MOSUNNY   28  16  60 SW3       30.54S
$$

NOTE: "FAIR" INDICATES FEW OR NO CLOUDS BELOW 12,000 FEET WITH NO
SIGNIFICANT WEATHER AND/OR OBSTRUCTIONS TO VISIBILITY. WIND
SPEEDS ARE IN MILES-PER-HOUR.



USA.gov is the U.S. government's official web portal to all federal, state and local government web resources and services.